Location: S�o Paulo
(23.5330°S, 46.6170°W)
Time: 11:43:24
(UTC-03:00)

ISS - Visible Passes

Search period start: 22 July 2017 00:00
Search period end: 01 August 2017 00:00
Orbit: 400 x 408 km, 51.6° (Epoch: 23 July)

Date Brightness Start Highest point End Pass type
(mag) Time Alt. Az. Time Alt. Az. Time Alt. Az.
23 Jul -0.2 18:01:34 10° W 18:03:02 12° NW 18:04:29 10° NNW visible
26 Jul -0.4 05:37:29 10° NNE 05:38:53 12° NE 05:40:17 10° E visible
28 Jul -2.4 05:27:22 10° NNW 05:30:27 39° NE 05:33:35 10° ESE visible
29 Jul -0.9 04:38:14 16° NE 04:38:14 16° NE 04:40:24 10° E visible
29 Jul -2.5 06:11:50 10° W 06:14:31 23° SW 06:17:15 10° S visible
30 Jul -3.5 05:22:27 49° SSW 05:22:27 49° SSW 05:25:22 10° SSE visible
